Location: *
(45.5667°S, 177.5167°W)
Time: 05:20:49
(UTC+00:00)

SJ 16-02 - Pass Details

Date: 29 May 2022
Orbit: 604 x 615 km, 75.0° (Epoch: 24 June)

Event Time Altitude Azimuth Distance (km) Brightness Sun altitude
Rises 05:30:52 0° 191° (S) 2,917 4.7 -12.5°
Reaches altitude 10° 05:33:27 10° 178° (S) 2,002 3.8 -12.9°
Maximum altitude 05:37:15 27° 120° (ESE) 1,205 2.3 -13.5°
Enters shadow 05:39:37 17° 75° (ENE) 1,554 2.9 -13.9°
